Regional Weather Roundup
Issued by NWS Goodland, KS

Home | Current Version | Previous Version | Text Only | Print | Product List | Glossary Off
Versions: 1 2 3 4 5 6 7 8 9 10 11 12 13 14 15 16 17 18 19 20 21 22 23 24 25 26 27 28 29 30 31 32 33 34 35 36 37 38 39 40 41 42 43 44 45 46 47 48 49 50

000
ASUS43 KGLD 051159
RWRGLD

GOODLAND FORECAST AREA HOURLY WEATHER ROUNDUP
NATIONAL WEATHER SERVICE GOODLAND KS
600 AM MDT TUE MAY 05 2015

...OFFICIAL OBSERVATIONS...

CITY           SKY/WX    TMP DP  RH WIND       PRES   REMARKS
GOODLAND KS    FOG       52  52 100 E7        30.00F VSB 1/4
HILL CITY KS   CLOUDY    59  57  93 CALM      30.01F
IMPERIAL NEB   FOG       50  49  96 N5        30.02F VSB 1/2
MCCOOK NEB     FOG       54  53  97 E3        30.02R VSB 1/4
AKRON CO       CLOUDY    46  46 100 SE7       30.02F FOG
BURLINGTON CO  FOG       51  49  92 E7        30.00F VSB 1/4
LIMON CO       FOG       46  46 100 SE9       30.01F VSB 1/2
$$

...UNOFFICIAL OBSERVATIONS...

CITY           SKY/WX    TMP DP  RH WIND       PRES   REMARKS
GOVE KS          N/A     58  32  37 MISG        N/A
LENORA KS        N/A     57  32  39 MISG        N/A
SHARON SPRINGS   N/A     54  53  96 MISG        N/A
KIT CARSON CO    N/A     50  48  92 MISG        N/A
YUMA CO          N/A     55  55 100 CALM        N/A
$$


USA.gov is the U.S. government's official web portal to all federal, state and local government web resources and services.